Regional Weather Roundup
Issued by NWS

Home | Current Version | Previous Version | Text Only | Print | Product List | Glossary On
Versions: 1 2 3 4 5 6 7 8 9 10 11 12 13 14 15 16 17 18 19 20 21 22 23 24 25 26 27 28 29 30 31 32 33 34 35 36 37 38 39 40 41 42 43 44 45 46 47 48 49 50
000
ASUS46 KSTO 301804
RWRCA

NORTHERN AND CENTRAL CA REGIONAL WEATHER ROUNDUP
NATIONAL WEATHER SERVICE SACRAMENTO CA
1100 AM PDT WED JUL 30 2014

NOTE: FAIR INDICATES FEW OR NO CLOUDS BELOW 12,000 FEET WITH NO
SIGNIFICANT WEATHER AND/OR OBSTRUCTIONS TO VISIBILITY.

CAZ001-003-301900-
NORTHWEST AREA

CITY           SKY/WX    TMP DP  RH WIND       PRES   REMARKS
CRESCENT CITY  CLOUDY    58  56  93 VRB5      30.05S FOG
UKIAH          SUNNY     88  50  27 E5        29.96F
$$

CAZ006-505>513-301900-
BAY AREA

CITY           SKY/WX    TMP DP  RH WIND       PRES   REMARKS
SANTA ROSA     MOSUNNY   69  56  62 VRB3      29.99F
SAN RAFAEL     N/A       61  MM  MM MISG
NAPA           MOSUNNY   67  59  75 VRB5      30.01S
CONCORD        SUNNY     73  57  57 N13       29.98S
OAKLAND CITY   N/A       62  MM  MM MISG
OAKLAND        MOSUNNY   66  56  70 NW7       30.02S
SAN FRAN CITY  N/A       61  MM  86 MISG
SAN FRAN ARPT  MOSUNNY   67  58  72 NW13      30.01S
LIVERMORE      SUNNY     82  55  39 NW6       29.98S
HAYWARD        MOSUNNY   70  60  70 W7        30.01F
REDWOOD CITY   N/A       MM  MM  MM MISG
MOFFETT ARPT   SUNNY     69  59  70 N5        30.02S
SAN JOSE ARPT  MOSUNNY   71  59  65 VRB3      30.01S
$$
CAZ034-037-514>518-301900-
CENTRAL COAST

CITY           SKY/WX    TMP DP  RH WIND       PRES   REMARKS
WATSONVILLE    SUNNY     71  58  63 VRB6      30.03S
SALINAS        SUNNY     70  57  63 W6        30.02S
MONTEREY       SUNNY     64  57  78 NW7       30.04S
SAN LUIS OBISP MOSUNNY   76  58  53 VRB3      29.99F
SANTA MARIA    MOSUNNY   73  60  63 W7        30.01S
$$
CAZ015-016-301900-
NORTHERN SACRAMENTO VALLEY

CITY           SKY/WX    TMP DP  RH WIND       PRES   REMARKS
REDDING        MOSUNNY   94  47  20 MISG      29.92F HX  90
RED BLUFF      SUNNY     97  44  16 VRB3      29.94S HX  93
OROVILLE       SUNNY     88  52  29 S7        29.97S
$$
CAZ016>018-301900-
SOUTHERN SACRAMENTO VALLEY

CITY           SKY/WX    TMP DP  RH WIND       PRES   REMARKS
AUBURN         SUNNY     91  43  18 S6        30.03S
BEALE AFB      SUNNY     90  49  24 VRB3      29.95S
LINCOLN        FAIR      90  46  22 SW5       29.95S
MARYSVILLE     SUNNY     89  47  23 S5        29.95F
SAC INTL ARPT  MOSUNNY   80  56  43 VRB3      29.95S
MATHER AIRPORT MOSUNNY   81  55  41 SW6       29.96F
DOWNTOWN SAC   N/A       82  MM  MM MISG
SAC EXEC ARPT  SUNNY     78  58  49 SW5       29.96S
VACAVILLE      SUNNY     84  55  36 SE7       29.97S
TRAVIS AFB     SUNNY     78  58  49 SW15      29.95S
$$
CAZ019>021-301900-
SAN JOAQUIN VALLEY

CITY           SKY/WX    TMP DP  RH WIND       PRES   REMARKS
STOCKTON       SUNNY     84  55  36 W3        29.96S
MODESTO        SUNNY     89  53  29 W5        29.95S
MERCED         MOSUNNY   91  45  20 NW8       29.94F
LEMOORE        PTSUNNY   91  47  21 NW9       29.95F
FRESNO         CLOUDY    91  58  32 CALM      29.95F HX  90
HANFORD        PTSUNNY   90  61  37 SE8       29.95S HX  90
PORTERVILLE    PTSUNNY   90  55  31 W5        29.96F
BAKERSFIELD    SUNNY     93  48  21 MISG      29.96S
$$
CAZ011-012-071-301900-
NORTHERN MOUNTAINS

CITY           SKY/WX    TMP DP  RH WIND       PRES   REMARKS
YREKA          SUNNY     88  45  22 N5        30.10F
MOUNT SHASTA   SUNNY     89  50  26 CALM      30.13F
ALTURAS        SUNNY     85  41  21 CALM      30.20F
$$
CAZ011-012-071-301900-
SIERRA NEVADA MTNS

CITY           SKY/WX    TMP DP  RH WIND       PRES   REMARKS
BLUE CANYON    SUNNY     78  41  26 VRB6      30.29S
TRUCKEE        MOSUNNY   79  45  29 S5        30.32F
TAHOE VLY ARPT SUNNY     79  51  37 NE9       30.34F
MAMMOTH LAKES  RAIN      55  50  82 CALM      30.50R
$$



USA.gov is the U.S. government's official web portal to all federal, state and local government web resources and services.